Volver al catálogo

STARLINK-5592

ActivoComunicacionesVLEO
NORAD 55741·PAYLOAD·🇺🇸 United States

Lanzado Mar 3, 2023 desde Vandenberg Space Force Base

Loading…

Próximos Pases (próximas 24 horas)

TLE

ActualizadoSource: CelesTrak SupGP

Época: Sep 15, 2026, 01:45 UTC

1 55741C 23028A   26258.07340278  .00631480  00000+0  52190-1 0  2588
2 55741  69.9998 127.0711 0003151 270.9813 142.7919 14.98549786    18

Sigue STARLINK-5592 en tiempo real con AllMySat

Download on the App Store